Pompano Beach, FL

3:14 AM EDT on June 23, 2018 (GMT -0400)
Pompano Beach

Weather History for KPMP - September, 2017

Change the Weather History Date:

Wednesday, September 13, 2017

  Actual Average Record
Temperature  
Mean Temperature 83 °F -  
Max Temperature 89 °F 91 °F 96 °F (1988)
Min Temperature 78 °F 74 °F 65 °F (1977)
Cooling Degree Days 18    
Growing Degree Days 33 (Base 50)    
Moisture  
Dew Point 75 °F    
Average Humidity 76    
Maximum Humidity 87    
Minimum Humidity 65    
Precipitation  
Precipitation 0.00 in - - ()
Sea Level Pressure  
Sea Level Pressure 29.94 in    
Wind  
Wind Speed 6 mph (SE)    
Max Wind Speed 15 mph    
Max Gust Speed -    
Visibility 10 miles    
Events Rain , Thunderstorm    
Averages and records for this station are not official NWS values.
T = Trace of Precipitation, MM = Missing Value Source: NWS Daily Summary

Daily Weather History Graph

Daily Weather History Graph

Search for Another Location

Airport or City:

Astronomy

Sep. 13, 2017 Rise Set
Actual Time 7:05 AM EDT 7:26 PM EDT
Civil Twilight 6:42 AM EDT 7:49 PM EDT
Nautical Twilight 6:15 AM EDT 8:16 PM EDT
Astronomical Twilight 5:47 AM EDT 8:44 PM EDT
Moon 12:29 AM EDT (9/13) 2:16 PM EDT (9/13)
Length of Visible Light 13h 07m
Length of Day
12h 21m
Last Quarter, 46% of the Moon is Illuminated
Sep 13
Last Quarter
Sep 20
New
Sep 27
First Quarter
Oct 5
Full
Oct 12
Last Quarter

Hourly Weather History & Observations

Time (EDT) Temp. Heat Index Dew Point Humidity Pressure Visibility Wind Dir Wind Speed Gust Speed Precip Events Conditions
12:53 AM 82.0 °F 90.2 °F 77.0 °F 85% 29.90 in 10.0 mi South 3.5 mph - N/A   Clear
1:53 AM 82.0 °F 90.2 °F 77.0 °F 85% 29.90 in 10.0 mi SE 3.5 mph - N/A   Scattered Clouds
2:53 AM 81.0 °F 86.7 °F 75.0 °F 82% 29.90 in 10.0 mi SSW 4.6 mph - N/A   Clear
3:53 AM 80.1 °F 85.1 °F 75.0 °F 85% 29.89 in 10.0 mi SW 4.6 mph - N/A   Clear
4:53 AM 80.1 °F 85.1 °F 75.0 °F 85% 29.91 in 10.0 mi West 4.6 mph - N/A   Clear
5:53 AM 79.0 °F - 73.9 °F 84% 29.91 in 10.0 mi West 4.6 mph - N/A   Clear
6:53 AM 78.1 °F - 73.9 °F 87% 29.93 in 10.0 mi WNW 3.5 mph - N/A   Clear
7:53 AM 80.1 °F 85.4 °F 75.9 °F 87% 29.94 in 10.0 mi NW 3.5 mph - N/A   Clear
8:53 AM 82.9 °F 90.2 °F 75.0 °F 77% 29.95 in 10.0 mi Calm Calm - N/A   Clear
9:53 AM 86.0 °F 95.1 °F 75.0 °F 70% 29.96 in 10.0 mi Calm Calm - N/A   Clear
10:53 AM 86.0 °F 95.1 °F 75.0 °F 70% 29.97 in 10.0 mi East 6.9 mph - N/A   Clear
11:53 AM 86.0 °F 93.8 °F 73.9 °F 67% 29.97 in 10.0 mi East 8.1 mph - N/A   Clear
12:53 PM 87.1 °F 95.4 °F 73.9 °F 65% 29.96 in 10.0 mi ESE 10.4 mph - N/A   Scattered Clouds
1:53 PM 87.1 °F 96.3 °F 75.0 °F 67% 29.95 in 10.0 mi ESE 9.2 mph - N/A   Clear
2:53 PM 88.0 °F 100.2 °F 77.0 °F 70% 29.94 in 10.0 mi ESE 11.5 mph - N/A   Clear
3:53 PM 87.1 °F 98.8 °F 77.0 °F 72% 29.93 in 10.0 mi ESE 15.0 mph - N/A   Clear
4:10 PM 86.0 °F 95.1 °F 75.0 °F 70% 29.92 in 10.0 mi ESE 11.5 mph - N/A Thunderstorm Clear
4:28 PM 86.0 °F 96.0 °F 75.9 °F 72% 29.92 in 10.0 mi ESE 9.2 mph - N/A   Clear
4:53 PM 84.9 °F 94.1 °F 75.9 °F 74% 29.93 in 10.0 mi SE 8.1 mph - N/A   Partly Cloudy
5:53 PM 84.0 °F 92.6 °F 75.9 °F 76% 29.93 in 10.0 mi SE 8.1 mph - 0.00 in Rain Light Rain
6:53 PM 84.0 °F 92.6 °F 75.9 °F 76% 29.94 in 10.0 mi SE 11.5 mph - 0.00 in   Partly Cloudy
7:53 PM 84.0 °F 91.9 °F 75.0 °F 74% 29.94 in 10.0 mi SE 5.8 mph - N/A   Clear
8:53 PM 84.0 °F 91.2 °F 73.9 °F 72% 29.94 in 10.0 mi ESE 11.5 mph - N/A   Clear
9:53 PM 82.9 °F 89.4 °F 73.9 °F 74% 29.97 in 10.0 mi SE 8.1 mph - N/A   Clear
10:53 PM 82.9 °F 90.2 °F 75.0 °F 77% 29.96 in 10.0 mi SE 6.9 mph - N/A   Clear
11:53 PM 82.9 °F 89.4 °F 73.9 °F 74% 29.96 in 10.0 mi SE 10.4 mph - N/A   Clear